Location: Monteux
(44.0348°N, 4.9972°E)
Time: 05:35:09
(UTC+00:00)

Cosmos 2341 Rocket - Pass Details

Date: 21 April 2021
Orbit: 969 x 1003 km, 82.9° (Epoch: 11 May)

Event Time Altitude Azimuth Distance (km) Brightness Sun altitude
Rises 01:56:43 0° 340° (NNW) 3,717 7.5 -25.9°
Reaches altitude 10° 01:59:43 10° 327° (NNW) 2,769 6.6 -25.6°
Enters shadow 02:03:54 23° 286° (WNW) 1,966 5.4 -25.1°
